TimeEDT,TemperatureF,Dew PointF,Humidity,Sea Level PressureIn,VisibilityMPH,Wind Direction,Wind SpeedMPH,Gust SpeedMPH,PrecipitationIn,Events,Conditions,WindDirDegrees,DateUTC
12:53 AM,70.0,68.0,93,30.04,10.0,NNE,5.8,-,N/A,,Clear,30,2013-10-10 04:53:00
1:53 AM,69.1,68.0,96,30.04,9.0,NNE,5.8,-,N/A,,Clear,30,2013-10-10 05:53:00
2:53 AM,69.1,66.9,93,30.04,8.0,NNE,3.5,-,N/A,,Partly Cloudy,30,2013-10-10 06:53:00
3:53 AM,68.0,66.9,96,30.03,8.0,NNE,3.5,-,N/A,,Clear,30,2013-10-10 07:53:00
4:53 AM,68.0,66.9,96,30.03,8.0,Calm,Calm,-,N/A,,Mostly Cloudy,0,2013-10-10 08:53:00
5:53 AM,66.9,66.0,97,30.03,8.0,NNE,4.6,-,N/A,,Clear,30,2013-10-10 09:53:00
6:18 AM,66.2,66.2,100,30.03,7.0,NNE,5.8,-,N/A,,Mostly Cloudy,20,2013-10-10 10:18:00
6:39 AM,66.2,66.2,100,30.03,8.0,NNE,5.8,-,N/A,,Scattered Clouds,20,2013-10-10 10:39:00
6:53 AM,66.9,66.0,97,30.03,8.0,NNE,6.9,-,N/A,,Clear,20,2013-10-10 10:53:00
7:53 AM,68.0,66.0,93,30.04,7.0,NNE,4.6,-,N/A,,Mostly Cloudy,20,2013-10-10 11:53:00
8:53 AM,71.1,66.9,87,30.05,10.0,NNE,6.9,-,N/A,,Mostly Cloudy,30,2013-10-10 12:53:00
9:53 AM,75.0,68.0,79,30.06,10.0,NE,6.9,-,N/A,,Clear,50,2013-10-10 13:53:00
10:53 AM,79.0,69.1,72,30.07,10.0,NE,6.9,-,N/A,,Partly Cloudy,40,2013-10-10 14:53:00
11:53 AM,82.0,69.1,65,30.08,10.0,East,5.8,-,N/A,,Mostly Cloudy,80,2013-10-10 15:53:00
12:53 PM,84.9,69.1,59,30.06,10.0,NNE,9.2,-,N/A,,Mostly Cloudy,30,2013-10-10 16:53:00
1:53 PM,84.9,68.0,57,30.03,10.0,Variable,4.6,-,N/A,,Scattered Clouds,0,2013-10-10 17:53:00
2:53 PM,86.0,68.0,55,30.01,10.0,NE,8.1,-,N/A,,Clear,50,2013-10-10 18:53:00
3:53 PM,87.1,66.9,51,29.99,10.0,ENE,10.4,-,N/A,,Mostly Cloudy,60,2013-10-10 19:53:00
4:53 PM,86.0,66.0,51,29.99,10.0,NE,10.4,-,N/A,,Partly Cloudy,40,2013-10-10 20:53:00
5:53 PM,86.0,66.0,51,29.98,10.0,NNE,8.1,-,N/A,,Clear,20,2013-10-10 21:53:00
6:53 PM,82.0,68.0,62,29.99,10.0,NNE,5.8,-,N/A,,Clear,20,2013-10-10 22:53:00
7:53 PM,78.1,69.1,74,29.99,10.0,NE,4.6,-,N/A,,Partly Cloudy,40,2013-10-10 23:53:00
8:53 PM,75.9,70.0,82,30.01,10.0,NE,4.6,-,N/A,,Scattered Clouds,50,2013-10-11 00:53:00
9:53 PM,75.0,69.1,82,30.03,10.0,ENE,5.8,-,N/A,,Clear,70,2013-10-11 01:53:00
10:53 PM,73.9,68.0,82,30.04,10.0,East,8.1,-,N/A,,Clear,80,2013-10-11 02:53:00
11:53 PM,73.0,68.0,84,30.03,10.0,East,6.9,-,N/A,,Clear,100,2013-10-11 03:53:00